| time (UTC) | temp C | wind direction | speed KPH | gust KPH | rain 1hr cm | rain 24hr cm | rain mn cm | humidity % | barometer mb |
| 20260505070515 | 13 | 200 | 1.6 | 8.0 | 0.00 | 0.00 | 0.00 | 70 | 1010.9 |
| 20260505070027 | 12 | 172 | 0.0 | 6.4 | 0.00 | 0.00 | 0.00 | 70 | 1011.0 |
| 20260505065510 | 12 | 201 | 0.0 | 4.8 | 0.00 | 0.00 | 0.00 | 71 | 1010.9 |
| 20260505065007 | 12 | 111 | 0.0 | 6.4 | 0.00 | 0.00 | 0.00 | 71 | 1011.0 |
| 20260505064527 | 12 | 244 | 0.0 | 6.4 | 0.00 | 0.00 | 0.00 | 71 | 1011.0 |
| 20260505064002 | 12 | 248 | 0.0 | 3.2 | 0.00 | 0.00 | 0.00 | 71 | 1011.0 |
| 20260505063506 | 12 | 194 | 0.0 | 3.2 | 0.00 | 0.00 | 0.00 | 71 | 1011.0 |
| 20260505063016 | 12 | 248 | 0.0 | 0.0 | 0.00 | 0.00 | 0.00 | 71 | 1011.1 |
| 20260505062508 | 12 | 248 | 0.0 | 3.2 | 0.00 | 0.00 | 0.00 | 72 | 1011.0 |
| 20260505062010 | 12 | 208 | 0.0 | 3.2 | 0.00 | 0.00 | 0.00 | 71 | 1010.9 |
| 20260505061525 | 13 | 176 | 0.0 | 0.0 | 0.00 | 0.00 | 0.00 | 71 | 1010.9 |
| 20260505061007 | 13 | 178 | 0.0 | 0.0 | 0.00 | 0.00 | 0.00 | 70 | 1010.9 |
| 20260505060511 | 13 | 178 | 0.0 | 0.0 | 0.00 | 0.00 | 0.00 | 70 | 1010.9 |
| 20260505060026 | 13 | 178 | 0.0 | 0.0 | 0.00 | 0.00 | 0.00 | 69 | 1010.9 |
| 20260505055512 | 13 | 178 | 0.0 | 0.0 | 0.00 | 0.00 | 0.00 | 68 | 1010.9 |
| 20260505055017 | 13 | 178 | 0.0 | 0.0 | 0.00 | 0.00 | 0.00 | 67 | 1010.9 |
| 20260505054529 | 13 | 178 | 0.0 | 0.0 | 0.00 | 0.00 | 0.00 | 67 | 1010.9 |
| 20260505054014 | 13 | 178 | 0.0 | 0.0 | 0.00 | 0.00 | 0.00 | 67 | 1010.9 |
| 20260505053510 | 13 | 178 | 0.0 | 0.0 | 0.00 | 0.00 | 0.00 | 66 | 1010.9 |
| 20260505053036 | 13 | 178 | 0.0 | 0.0 | 0.00 | 0.00 | 0.00 | 66 | 1011.0 |
| 20260505052507 | 13 | 178 | 0.0 | 0.0 | 0.00 | 0.00 | 0.00 | 66 | 1011.0 |
| 20260505052009 | 13 | 178 | 0.0 | 0.0 | 0.00 | 0.00 | 0.00 | 66 | 1011.1 |
| 20260505051536 | 13 | 178 | 0.0 | 0.0 | 0.00 | 0.00 | 0.00 | 66 | 1011.1 |
| 20260505051007 | 13 | 178 | 0.0 | 0.0 | 0.00 | 0.00 | 0.00 | 66 | 1011.1 |
| 20260505050507 | 13 | 178 | 0.0 | 0.0 | 0.00 | 0.00 | 0.00 | 66 | 1011.2 |
| 20260505041522 | 15 | 199 | 0.0 | 0.0 | 0.00 | 0.00 | 0.00 | 58 | 1011.1 |
| 20260505041004 | 15 | 199 | 0.0 | 0.0 | 0.00 | 0.00 | 0.00 | 58 | 1011.1 |
| 20260505040510 | 15 | 199 | 0.0 | 0.0 | 0.00 | 0.00 | 0.00 | 58 | 1011.1 |
| 20260505040004 | 15 | 199 | 0.0 | 0.0 | 0.00 | 0.00 | 0.00 | 58 | 1011.0 |
| 20260505035505 | 16 | 199 | 0.0 | 0.0 | 0.00 | 0.00 | 0.00 | 57 | 1010.9 |
| 20260505035003 | 16 | 199 | 0.0 | 0.0 | 0.00 | 0.00 | 0.00 | 57 | 1010.9 |
| 20260505034506 | 16 | 199 | 0.0 | 0.0 | 0.00 | 0.00 | 0.00 | 56 | 1010.9 |
| 20260505034006 | 16 | 199 | 0.0 | 3.2 | 0.00 | 0.00 | 0.00 | 56 | 1010.9 |
| 20260505033503 | 16 | 199 | 0.0 | 3.2 | 0.00 | 0.00 | 0.00 | 55 | 1010.9 |
| 20260505033010 | 16 | 192 | 0.0 | 0.0 | 0.00 | 0.00 | 0.00 | 55 | 1010.9 |
| 20260505032505 | 16 | 202 | 0.0 | 0.0 | 0.00 | 0.00 | 0.00 | 55 | 1010.9 |
| 20260505032002 | 16 | 202 | 0.0 | 0.0 | 0.00 | 0.00 | 0.00 | 55 | 1010.9 |
| 20260505031515 | 16 | 201 | 0.0 | 0.0 | 0.00 | 0.00 | 0.00 | 54 | 1010.9 |
| 20260505031011 | 16 | 201 | 0.0 | 3.2 | 0.00 | 0.00 | 0.00 | 53 | 1010.9 |
| 20260505030510 | 16 | 200 | 0.0 | 3.2 | 0.00 | 0.00 | 0.00 | 53 | 1011.0 |
| 20260505030023 | 16 | 188 | 0.0 | 3.2 | 0.00 | 0.00 | 0.00 | 54 | 1010.9 |
| 20260505025508 | 16 | 182 | 0.0 | 3.2 | 0.00 | 0.00 | 0.00 | 53 | 1011.0 |
| 20260505025009 | 16 | 200 | 0.0 | 3.2 | 0.00 | 0.00 | 0.00 | 53 | 1011.0 |
| 20260505024505 | 17 | 16 | 0.0 | 0.0 | 0.00 | 0.00 | 0.00 | 52 | 1011.0 |
| 20260505024002 | 17 | 15 | 0.0 | 0.0 | 0.00 | 0.00 | 0.00 | 52 | 1011.0 |
| 20260505023503 | 17 | 15 | 0.0 | 1.6 | 0.00 | 0.00 | 0.00 | 52 | 1010.9 |
| 20260505023012 | 17 | 15 | 0.0 | 1.6 | 0.00 | 0.00 | 0.00 | 51 | 1011.0 |
| 20260505022504 | 17 | 164 | 0.0 | 1.6 | 0.00 | 0.00 | 0.00 | 51 | 1010.8 |
| 20260505022004 | 17 | 225 | 0.0 | 0.0 | 0.00 | 0.00 | 0.00 | 50 | 1010.9 |
| 20260505021516 | 17 | 225 | 0.0 | 0.0 | 0.00 | 0.00 | 0.00 | 50 | 1010.9 |
| 20260505021004 | 18 | 204 | 0.0 | 0.0 | 0.00 | 0.00 | 0.00 | 49 | 1010.9 |
| 20260505020504 | 18 | 204 | 0.0 | 0.0 | 0.00 | 0.00 | 0.00 | 48 | 1010.9 |
| 20260505020018 | 18 | 215 | 0.0 | 0.0 | 0.00 | 0.00 | 0.00 | 49 | 1010.9 |
| 20260505015508 | 18 | 194 | 0.0 | 0.0 | 0.00 | 0.00 | 0.00 | 48 | 1010.7 |
| 20260505015007 | 18 | 194 | 0.0 | 3.2 | 0.00 | 0.00 | 0.00 | 47 | 1010.7 |
| 20260505014523 | 18 | 181 | 0.0 | 3.2 | 0.00 | 0.00 | 0.00 | 47 | 1010.7 |
| 20260505014007 | 18 | 172 | 0.0 | 0.0 | 0.00 | 0.00 | 0.00 | 46 | 1010.6 |
| 20260505013503 | 19 | 172 | 0.0 | 3.2 | 0.00 | 0.00 | 0.00 | 45 | 1010.6 |
| 20260505013008 | 19 | 199 | 0.0 | 3.2 | 0.00 | 0.00 | 0.00 | 45 | 1010.6 |
| 20260505012503 | 19 | 173 | 0.0 | 3.2 | 0.00 | 0.00 | 0.00 | 44 | 1010.6 |
| 20260505012004 | 20 | 225 | 0.0 | 4.8 | 0.00 | 0.00 | 0.00 | 44 | 1010.6 |
| 20260505011511 | 20 | 214 | 0.0 | 4.8 | 0.00 | 0.00 | 0.00 | 44 | 1010.5 |
| 20260505011008 | 20 | 252 | 0.0 | 4.8 | 0.00 | 0.00 | 0.00 | 43 | 1010.5 |
| 20260505010505 | 20 | 225 | 0.0 | 3.2 | 0.00 | 0.00 | 0.00 | 42 | 1010.4 |
| 20260505010029 | 20 | 198 | 0.0 | 3.2 | 0.00 | 0.00 | 0.00 | 42 | 1010.4 |
| 20260505005506 | 20 | 188 | 0.0 | 3.2 | 0.00 | 0.00 | 0.00 | 41 | 1010.3 |
| 20260505005006 | 20 | 215 | 0.0 | 4.8 | 0.00 | 0.00 | 0.00 | 41 | 1010.3 |
| 20260505004521 | 21 | 178 | 0.0 | 4.8 | 0.00 | 0.00 | 0.00 | 43 | 1010.2 |
| 20260505004009 | 21 | 166 | 0.0 | 4.8 | 0.00 | 0.00 | 0.00 | 40 | 1010.2 |
| 20260505003510 | 21 | 214 | 0.0 | 6.4 | 0.00 | 0.00 | 0.00 | 39 | 1010.2 |
| 20260505003025 | 21 | 153 | 0.0 | 6.4 | 0.00 | 0.00 | 0.00 | 39 | 1010.2 |
| 20260505002504 | 21 | 186 | 0.0 | 3.2 | 0.00 | 0.00 | 0.00 | 39 | 1010.2 |
| 20260505002004 | 21 | 184 | 0.0 | 6.4 | 0.00 | 0.00 | 0.00 | 38 | 1010.1 |
| 20260505001510 | 21 | 205 | 1.6 | 6.4 | 0.00 | 0.00 | 0.00 | 38 | 1010.2 |
| 20260505001004 | 21 | 171 | 0.0 | 9.7 | 0.00 | 0.00 | 0.00 | 37 | 1010.2 |
| 20260505000504 | 22 | 292 | 0.0 | 9.7 | 0.00 | 0.00 | 0.00 | 38 | 1010.2 |
| 20260505000032 | 22 | 192 | 0.0 | 8.0 | 0.00 | 0.00 | 0.00 | 37 | 1010.1 |
| 20260504235506 | 22 | 244 | 3.2 | 8.0 | 0.00 | 0.00 | 0.00 | 36 | 1010.0 |
| 20260504235006 | 22 | 163 | 1.6 | 8.0 | 0.00 | 0.00 | 0.00 | 36 | 1010.0 |
| 20260504234518 | 22 | 216 | 1.6 | 8.0 | 0.00 | 0.00 | 0.00 | 35 | 1010.1 |
| 20260504234004 | 22 | 202 | 1.6 | 6.4 | 0.00 | 0.00 | 0.00 | 35 | 1010.0 |
| 20260504233509 | 22 | 221 | 1.6 | 8.0 | 0.00 | 0.00 | 0.00 | 36 | 1010.0 |
| 20260504233020 | 22 | 204 | 0.0 | 9.7 | 0.00 | 0.00 | 0.00 | 35 | 1009.9 |
| 20260504232509 | 22 | 234 | 4.8 | 9.7 | 0.00 | 0.00 | 0.00 | 34 | 1009.8 |
| 20260504232011 | 23 | 240 | 1.6 | 9.7 | 0.00 | 0.00 | 0.00 | 34 | 1009.8 |
| 20260504231524 | 23 | 283 | 1.6 | 11.3 | 0.00 | 0.00 | 0.00 | 34 | 1009.8 |
| 20260504231003 | 23 | 202 | 3.2 | 11.3 | 0.00 | 0.00 | 0.00 | 34 | 1009.8 |
| 20260504230504 | 23 | 344 | 1.6 | 14.5 | 0.00 | 0.00 | 0.00 | 34 | 1009.9 |
| 20260504230011 | 23 | 234 | 1.6 | 16.1 | 0.00 | 0.00 | 0.00 | 33 | 1010.0 |
| 20260504225504 | 23 | 38 | 1.6 | 19.3 | 0.00 | 0.00 | 0.00 | 33 | 1009.9 |
| 20260504225002 | 23 | 217 | 4.8 | 17.7 | 0.00 | 0.00 | 0.00 | 33 | 1009.9 |
| 20260504224516 | 24 | 279 | 3.2 | 16.1 | 0.00 | 0.00 | 0.00 | 32 | 1009.8 |
| 20260504224004 | 24 | 102 | 3.2 | 16.1 | 0.00 | 0.00 | 0.00 | 31 | 1009.8 |
| 20260504223507 | 25 | 279 | 1.6 | 16.1 | 0.00 | 0.00 | 0.00 | 32 | 1009.8 |
| 20260504223020 | 25 | 267 | 4.8 | 16.1 | 0.00 | 0.00 | 0.00 | 31 | 1009.9 |
| 20260504222508 | 25 | 168 | 6.4 | 17.7 | 0.00 | 0.00 | 0.00 | 31 | 1009.8 |
| 20260504222010 | 25 | 285 | 3.2 | 17.7 | 0.00 | 0.00 | 0.00 | 31 | 1009.8 |
| 20260504221539 | 25 | 311 | 3.2 | 17.7 | 0.00 | 0.00 | 0.00 | 30 | 1009.7 |
| 20260504221007 | 25 | 177 | 4.8 | 17.7 | 0.00 | 0.00 | 0.00 | 30 | 1009.7 |
| 20260504220511 | 25 | 261 | 3.2 | 14.5 | 0.00 | 0.00 | 0.00 | 30 | 1009.6 |
| 20260504220008 | 25 | 276 | 3.2 | 14.5 | 0.00 | 0.00 | 0.00 | 30 | 1009.6 |
| 20260504215507 | 25 | 249 | 4.8 | 16.1 | 0.00 | 0.00 | 0.00 | 29 | 1009.7 |
| 20260504215009 | 25 | 292 | 6.4 | 16.1 | 0.00 | 0.00 | 0.00 | 29 | 1009.6 |
| 20260504214512 | 25 | 229 | 6.4 | 14.5 | 0.00 | 0.00 | 0.00 | 28 | 1009.8 |
| 20260504214007 | 25 | 161 | 6.4 | 17.7 | 0.00 | 0.00 | 0.00 | 29 | 1009.7 |
| 20260504213504 | 25 | 254 | 4.8 | 17.7 | 0.00 | 0.00 | 0.00 | 28 | 1009.7 |
| 20260504213019 | 25 | 282 | 4.8 | 17.7 | 0.00 | 0.00 | 0.00 | 29 | 1009.8 |
| 20260504212506 | 26 | 246 | 4.8 | 19.3 | 0.00 | 0.00 | 0.00 | 28 | 1009.8 |
| 20260504212010 | 26 | 119 | 3.2 | 19.3 | 0.00 | 0.00 | 0.00 | 29 | 1009.6 |
| 20260504211523 | 26 | 227 | 3.2 | 16.1 | 0.00 | 0.00 | 0.00 | 28 | 1009.8 |
| 20260504211009 | 26 | 319 | 1.6 | 14.5 | 0.00 | 0.00 | 0.00 | 28 | 1009.8 |
| 20260504210508 | 26 | 289 | 4.8 | 14.5 | 0.00 | 0.00 | 0.00 | 28 | 1009.9 |
| 20260504210028 | 26 | 226 | 4.8 | 14.5 | 0.00 | 0.00 | 0.00 | 29 | 1009.9 |
| 20260504205507 | 26 | 304 | 3.2 | 14.5 | 0.00 | 0.00 | 0.00 | 28 | 1009.9 |
| 20260504205003 | 26 | 138 | 8.0 | 14.5 | 0.00 | 0.00 | 0.00 | 28 | 1009.9 |
| 20260504204511 | 26 | 350 | 1.6 | 27.4 | 0.00 | 0.00 | 0.00 | 28 | 1009.9 |
| 20260504204004 | 26 | 236 | 4.8 | 27.4 | 0.00 | 0.00 | 0.00 | 28 | 1010.1 |
| 20260504203505 | 26 | 188 | 6.4 | 16.1 | 0.00 | 0.00 | 0.00 | 27 | 1010.0 |
| 20260504203018 | 26 | 169 | 3.2 | 17.7 | 0.00 | 0.00 | 0.00 | 29 | 1010.2 |
| 20260504202507 | 26 | 207 | 0.0 | 27.4 | 0.00 | 0.00 | 0.00 | 28 | 1010.2 |
| 20260504202008 | 26 | 179 | 11.3 | 27.4 | 0.00 | 0.00 | 0.00 | 26 | 1010.2 |
| 20260504201524 | 26 | 157 | 3.2 | 22.5 | 0.00 | 0.00 | 0.00 | 28 | 1010.2 |
| 20260504201011 | 26 | 269 | 4.8 | 22.5 | 0.00 | 0.00 | 0.00 | 28 | 1010.2 |
| 20260504200513 | 26 | 229 | 4.8 | 17.7 | 0.00 | 0.00 | 0.00 | 28 | 1010.4 |
| 20260504200026 | 26 | 146 | 4.8 | 9.7 | 0.00 | 0.00 | 0.00 | 27 | 1010.4 |
| 20260504195508 | 26 | 251 | 3.2 | 6.4 | 0.00 | 0.00 | 0.00 | 28 | 1010.4 |
| 20260504195013 | 26 | 20 | 3.2 | 16.1 | 0.00 | 0.00 | 0.00 | 28 | 1010.6 |
| 20260504194531 | 26 | 225 | 6.4 | 16.1 | 0.00 | 0.00 | 0.00 | 28 | 1010.6 |
| 20260504194006 | 26 | 63 | 3.2 | 16.1 | 0.00 | 0.00 | 0.00 | 29 | 1010.7 |
| 20260504193506 | 26 | 205 | 3.2 | 16.1 | 0.00 | 0.00 | 0.00 | 28 | 1010.8 |
| 20260504193014 | 25 | 268 | 4.8 | 11.3 | 0.00 | 0.00 | 0.00 | 29 | 1010.8 |
| 20260504192506 | 25 | 246 | 4.8 | 20.9 | 0.00 | 0.00 | 0.00 | 30 | 1010.9 |
| 20260504192012 | 25 | 279 | 6.4 | 27.4 | 0.00 | 0.00 | 0.00 | 29 | 1011.0 |
| 20260504191532 | 25 | 269 | 6.4 | 27.4 | 0.00 | 0.00 | 0.00 | 29 | 1011.1 |
| 20260504191008 | 25 | 287 | 9.7 | 27.4 | 0.00 | 0.00 | 0.00 | 28 | 1011.1 |
| 20260504190504 | 25 | 239 | 6.4 | 14.5 | 0.00 | 0.00 | 0.00 | 30 | 1011.2 |
| 20260504190006 | 25 | 198 | 6.4 | 17.7 | 0.00 | 0.00 | 0.00 | 29 | 1011.1 |
| 20260504185503 | 25 | 255 | 8.0 | 17.7 | 0.00 | 0.00 | 0.00 | 28 | 1011.3 |
| 20260504185004 | 25 | 286 | 6.4 | 25.7 | 0.00 | 0.00 | 0.00 | 28 | 1011.5 |
| 20260504184516 | 25 | 249 | 11.3 | 25.7 | 0.00 | 0.00 | 0.00 | 28 | 1011.4 |
| 20260504184006 | 25 | 268 | 6.4 | 19.3 | 0.00 | 0.00 | 0.00 | 29 | 1011.5 |
| 20260504183505 | 25 | 306 | 3.2 | 19.3 | 0.00 | 0.00 | 0.00 | 30 | 1011.5 |
| 20260504183014 | 25 | 276 | 8.0 | 27.4 | 0.00 | 0.00 | 0.00 | 30 | 1011.7 |
| 20260504182506 | 24 | 304 | 6.4 | 33.8 | 0.00 | 0.00 | 0.00 | 30 | 1011.9 |
| 20260504182007 | 25 | 260 | 11.3 | 33.8 | 0.00 | 0.00 | 0.00 | 30 | 1012.0 |
| 20260504181522 | 25 | 294 | 4.8 | 14.5 | 0.00 | 0.00 | 0.00 | 30 | 1012.0 |
| 20260504180959 | 25 | 219 | 6.4 | 17.7 | 0.00 | 0.00 | 0.00 | 29 | 1012.1 |
| 20260504180504 | 25 | 213 | 8.0 | 17.7 | 0.00 | 0.00 | 0.00 | 29 | 1012.1 |
| 20260504180007 | 25 | 244 | 3.2 | 16.1 | 0.00 | 0.00 | 0.00 | 31 | 1012.2 |
| 20260504175504 | 24 | 105 | 3.2 | 20.9 | 0.00 | 0.00 | 0.00 | 31 | 1012.2 |
| 20260504175003 | 24 | 271 | 8.0 | 20.9 | 0.00 | 0.00 | 0.00 | 29 | 1012.2 |
| 20260504174508 | 25 | 292 | 4.8 | 20.9 | 0.00 | 0.00 | 0.00 | 28 | 1012.2 |
| 20260504174004 | 25 | 224 | 4.8 | 14.5 | 0.00 | 0.00 | 0.00 | 27 | 1012.4 |
| 20260504173504 | 25 | 292 | 6.4 | 24.1 | 0.00 | 0.00 | 0.00 | 29 | 1012.4 |
| 20260504173011 | 25 | 19 | 3.2 | 24.1 | 0.00 | 0.00 | 0.00 | 30 | 1012.5 |
| 20260504172505 | 24 | 260 | 4.8 | 24.1 | 0.00 | 0.00 | 0.00 | 29 | 1012.6 |
| 20260504172006 | 24 | 236 | 6.4 | 17.7 | 0.00 | 0.00 | 0.00 | 28 | 1012.7 |
| 20260504171525 | 24 | 194 | 6.4 | 17.7 | 0.00 | 0.00 | 0.00 | 29 | 1012.7 |
| 20260504171006 | 24 | 186 | 4.8 | 14.5 | 0.00 | 0.00 | 0.00 | 28 | 1012.7 |
| 20260504170506 | 23 | 223 | 3.2 | 17.7 | 0.00 | 0.00 | 0.00 | 29 | 1012.7 |
| 20260504151007 | 21 | 165 | 1.6 | 16.1 | 0.00 | 0.00 | 0.00 | 33 | 1013.8 |
| 20260504150506 | 21 | 240 | 3.2 | 16.1 | 0.00 | 0.00 | 0.00 | 33 | 1013.9 |
| 20260504141006 | 18 | 327 | 3.2 | 11.3 | 0.00 | 0.00 | 0.00 | 41 | 1014.3 |
| 20260504140507 | 17 | 194 | 4.8 | 12.9 | 0.00 | 0.00 | 0.00 | 43 | 1014.4 |
| 20260504130506 | 15 | 251 | 4.8 | 16.1 | 0.00 | 0.00 | 0.00 | 49 | 1014.6 |
| 20260504110506 | 8 | 186 | 0.0 | 3.2 | 0.00 | 0.00 | 0.00 | 71 | 1015.4 |
| 20260504100503 | 8 | 185 | 0.0 | 0.0 | 0.00 | 0.00 | 0.00 | 73 | 1015.2 |
| 20260504082004 | 7 | 263 | 0.0 | 3.2 | 0.00 | 0.00 | 0.00 | 80 | 1015.5 |
| 20260504081525 | 7 | 262 | 0.0 | 3.2 | 0.00 | 0.00 | 0.00 | 81 | 1015.5 |
| 20260504081013 | 6 | 231 | 0.0 | 1.6 | 0.00 | 0.00 | 0.00 | 81 | 1015.5 |
| 20260504080508 | 6 | 235 | 0.0 | 0.0 | 0.00 | 0.00 | 0.00 | 81 | 1015.4 |